When you browse on this site, cookies collect data to enhance your experience and personalize the content and advertising you see.
Visit our Privacy Policy to learn more. By continuing to use the site, you agree to this use of cookies and data.
  • In Spain
  • List of Countries
  • For 7 days
  • Water Temperature
  • Weather Map
  • Weather Widgets
  • user-avatar
    Login

    Hourly Weather Mongu

    Today, 15 December, Sunday

    Time Temperature Precipitation Wind Pressure Humidity
    00:00 +23°C° 0 mm 2 mps 674 mmHg 81%
    01:00 +23°C° 0 mm 2 mps 673 mmHg 81%
    02:00 +23°C° 0 mm 2 mps 673 mmHg 81%
    03:00 +23°C° 0 mm 2 mps 673 mmHg 83%
    04:00 +21°C° 0 mm 2 mps 673 mmHg 84%
    05:00 +21°C° 0 mm 2 mps 673 mmHg 86%
    06:00 +23°C° 0 mm 2 mps 674 mmHg 82%
    07:00 +24°C° 0 mm 2 mps 674 mmHg 79%
    08:00 +25°C° 0 mm 2 mps 675 mmHg 74%
    09:00 +27°C° 0 mm 2 mps 675 mmHg 65%
    10:00 +29°C° 0 mm 2 mps 675 mmHg 56%
    11:00 +31°C° 0 mm 2 mps 676 mmHg 47%
    12:00 +32°C° 0 mm 2 mps 675 mmHg 44%
    13:00 +34°C° 0 mm 2 mps 674 mmHg 41%
    14:00 +32°C° 0 mm 2 mps 674 mmHg 43%
    15:00 +32°C° 0 mm 2 mps 674 mmHg 43%
    16:00 +32°C° 0 mm 2 mps 673 mmHg 43%
    17:00 +32°C° 0 mm 2 mps 673 mmHg 42%
    18:00 +29°C° 0.2 mm 2 mps 673 mmHg 51%
    19:00 +27°C° 0.2 mm 2 mps 673 mmHg 60%
    20:00 +25°C° 0.2 mm 2 mps 673 mmHg 69%
    21:00 +25°C° 0.1 mm 2 mps 673 mmHg 71%
    22:00 +25°C° 0.1 mm 2 mps 673 mmHg 72%
    23:00 +24°C° 0.1 mm 2 mps 673 mmHg 74%

    Tomorrow, 16 December, Monday

    Time Temperature Precipitation Wind Pressure Humidity
    00:00 +24°C° 0 mm 2 mps 673 mmHg 74%
    01:00 +24°C° 0 mm 2 mps 673 mmHg 73%
    02:00 +24°C° 0 mm 2 mps 672 mmHg 73%
    03:00 +24°C° 0 mm 1 mps 672 mmHg 74%
    04:00 +24°C° 0 mm 1 mps 672 mmHg 74%
    05:00 +24°C° 0 mm 1 mps 672 mmHg 75%
    06:00 +24°C° 0 mm 1 mps 673 mmHg 73%
    07:00 +24°C° 0 mm 2 mps 673 mmHg 72%
    08:00 +25°C° 0 mm 2 mps 674 mmHg 71%
    09:00 +26°C° 0 mm 2 mps 674 mmHg 65%
    10:00 +28°C° 0 mm 3 mps 674 mmHg 60%
    11:00 +30°C° 0 mm 3 mps 675 mmHg 55%
    12:00 +30°C° 0.2 mm 3 mps 674 mmHg 52%
    13:00 +31°C° 0.2 mm 3 mps 674 mmHg 48%
    14:00 +33°C° 0.2 mm 3 mps 673 mmHg 45%
    15:00 +31°C° 1 mm 2 mps 673 mmHg 51%
    16:00 +29°C° 1 mm 2 mps 672 mmHg 58%
    17:00 +28°C° 1 mm 2 mps 671 mmHg 64%
    18:00 +26°C° 0.2 mm 1 mps 671 mmHg 68%
    19:00 +25°C° 0.2 mm 1 mps 671 mmHg 72%
    20:00 +24°C° 0.2 mm 1 mps 672 mmHg 76%
    21:00 +23°C° 0 mm 1 mps 672 mmHg 77%
    22:00 +23°C° 0 mm 1 mps 673 mmHg 78%
    23:00 +23°C° 0 mm 1 mps 673 mmHg 79%

    Day after tomorrow, 17 December, Tuesday

    Time Temperature Precipitation Wind Pressure Humidity
    00:00 +23°C° 0.1 mm 1 mps 673 mmHg 80%
    01:00 +22°C° 0.1 mm 1 mps 673 mmHg 82%
    02:00 +22°C° 0.1 mm 1 mps 672 mmHg 83%
    03:00 +22°C° 0 mm 1 mps 672 mmHg 84%
    04:00 +21°C° 0 mm 1 mps 672 mmHg 85%
    05:00 +21°C° 0 mm 1 mps 672 mmHg 86%
    06:00 +22°C° 0 mm 1 mps 673 mmHg 81%
    07:00 +24°C° 0 mm 1 mps 674 mmHg 76%
    08:00 +25°C° 0 mm 2 mps 675 mmHg 71%
    09:00 +27°C° 0 mm 2 mps 675 mmHg 61%
    10:00 +30°C° 0 mm 3 mps 675 mmHg 52%
    11:00 +33°C° 0 mm 4 mps 675 mmHg 42%
    12:00 +34°C° 0 mm 4 mps 674 mmHg 38%
    13:00 +35°C° 0 mm 4 mps 674 mmHg 35%
    14:00 +36°C° 0 mm 4 mps 673 mmHg 31%
    15:00 +35°C° 0 mm 4 mps 673 mmHg 32%
    16:00 +35°C° 0 mm 4 mps 672 mmHg 33%
    17:00 +34°C° 0 mm 4 mps 672 mmHg 34%
    18:00 +31°C° 0 mm 3 mps 672 mmHg 40%
    19:00 +29°C° 0 mm 3 mps 672 mmHg 46%
    20:00 +27°C° 0 mm 2 mps 672 mmHg 53%
    21:00 +26°C° 0 mm 2 mps 672 mmHg 56%
    22:00 +26°C° 0 mm 2 mps 673 mmHg 59%
    23:00 +25°C° 0 mm 2 mps 673 mmHg 62%

    18 December, Wednesday

    Time Temperature Precipitation Wind Pressure Humidity
    00:00 +24°C° 0 mm 2 mps 673 mmHg 65%
    01:00 +24°C° 0 mm 2 mps 672 mmHg 68%
    02:00 +23°C° 0 mm 2 mps 672 mmHg 70%
    03:00 +23°C° 0 mm 2 mps 672 mmHg 72%
    04:00 +22°C° 0 mm 1 mps 672 mmHg 74%
    05:00 +22°C° 0 mm 1 mps 672 mmHg 76%
    06:00 +23°C° 0 mm 2 mps 672 mmHg 71%
    07:00 +24°C° 0 mm 2 mps 673 mmHg 66%
    08:00 +26°C° 0 mm 3 mps 674 mmHg 62%
    09:00 +28°C° 0 mm 3 mps 674 mmHg 53%
    10:00 +31°C° 0 mm 3 mps 674 mmHg 44%
    11:00 +34°C° 0 mm 4 mps 675 mmHg 34%
    12:00 +35°C° 0 mm 4 mps 674 mmHg 31%
    13:00 +36°C° 0 mm 4 mps 673 mmHg 28%
    14:00 +37°C° 0 mm 4 mps 673 mmHg 25%
    15:00 +37°C° 0 mm 3 mps 672 mmHg 26%
    16:00 +36°C° 0 mm 3 mps 672 mmHg 26%
    17:00 +36°C° 0 mm 3 mps 671 mmHg 26%
    18:00 +33°C° 0 mm 3 mps 671 mmHg 32%
    19:00 +30°C° 0 mm 3 mps 671 mmHg 37%
    20:00 +28°C° 0 mm 2 mps 671 mmHg 43%
    21:00 +27°C° 0 mm 2 mps 671 mmHg 45%
    22:00 +26°C° 0 mm 2 mps 672 mmHg 47%
    23:00 +25°C° 0 mm 2 mps 672 mmHg 50%

    19 December, Thursday

    Time Temperature Precipitation Wind Pressure Humidity
    00:00 +25°C° 0 mm 2 mps 672 mmHg 52%
    01:00 +24°C° 0 mm 2 mps 671 mmHg 55%
    02:00 +24°C° 0 mm 2 mps 671 mmHg 57%
    03:00 +24°C° 0 mm 2 mps 671 mmHg 57%
    04:00 +23°C° 0 mm 2 mps 672 mmHg 57%
    05:00 +23°C° 0 mm 2 mps 672 mmHg 58%
    06:00 +24°C° 0 mm 2 mps 672 mmHg 54%
    07:00 +25°C° 0 mm 3 mps 673 mmHg 51%
    08:00 +26°C° 0 mm 4 mps 673 mmHg 48%
    09:00 +28°C° 0 mm 3 mps 674 mmHg 44%
    10:00 +31°C° 0 mm 3 mps 674 mmHg 40%
    11:00 +34°C° 0 mm 3 mps 674 mmHg 37%
    12:00 +35°C° 0 mm 3 mps 673 mmHg 34%
    13:00 +36°C° 0 mm 2 mps 673 mmHg 31%
    14:00 +37°C° 0 mm 2 mps 672 mmHg 29%
    15:00 +36°C° 0 mm 2 mps 672 mmHg 31%
    16:00 +35°C° 0 mm 2 mps 671 mmHg 34%
    17:00 +34°C° 0 mm 2 mps 671 mmHg 36%
    18:00 +32°C° 0 mm 2 mps 671 mmHg 39%
    19:00 +30°C° 0 mm 2 mps 671 mmHg 41%
    20:00 +29°C° 0 mm 1 mps 671 mmHg 44%
    21:00 +29°C° 0 mm 2 mps 672 mmHg 45%
    22:00 +28°C° 0 mm 2 mps 672 mmHg 46%
    23:00 +28°C° 0 mm 2 mps 672 mmHg 47%

    20 December, Friday

    Time Temperature Precipitation Wind Pressure Humidity
    00:00 +27°C° 0 mm 2 mps 672 mmHg 51%
    01:00 +26°C° 0 mm 2 mps 672 mmHg 55%
    02:00 +25°C° 0 mm 2 mps 671 mmHg 59%
    03:00 +24°C° 0 mm 2 mps 671 mmHg 62%
    04:00 +23°C° 0 mm 2 mps 671 mmHg 65%
    05:00 +23°C° 0 mm 2 mps 671 mmHg 68%
    06:00 +24°C° 0 mm 2 mps 672 mmHg 67%
    07:00 +25°C° 0 mm 2 mps 673 mmHg 66%
    08:00 +26°C° 0 mm 2 mps 674 mmHg 65%
    09:00 +29°C° 0 mm 2 mps 674 mmHg 56%
    10:00 +31°C° 0 mm 2 mps 674 mmHg 47%
    11:00 +34°C° 0 mm 3 mps 675 mmHg 38%
    12:00 +35°C° 0 mm 2 mps 674 mmHg 35%
    13:00 +36°C° 0 mm 1 mps 674 mmHg 32%
    14:00 +37°C° 0 mm 1 mps 673 mmHg 28%
    15:00 +35°C° 0 mm 1 mps 672 mmHg 31%
    16:00 +34°C° 0 mm 1 mps 672 mmHg 34%
    17:00 +34°C° 0 mm 2 mps 671 mmHg 36%
    18:00 +31°C° 0.1 mm 1 mps 671 mmHg 41%
    19:00 +30°C° 0.1 mm 1 mps 671 mmHg 46%
    20:00 +28°C° 0.1 mm 1 mps 671 mmHg 50%
    21:00 +27°C° 0.1 mm 1 mps 672 mmHg 55%
    22:00 +26°C° 0.1 mm 1 mps 672 mmHg 60%
    23:00 +25°C° 0.1 mm 1 mps 672 mmHg 65%
    Show more